Location: Croisilles
(50.1998°N, 2.8793°E)
Time: 13:35:53
(UTC+00:00)

Iridium 4 Rocket - Pass Details

Date: 21 January 2021
Orbit: 583 x 906 km, 86.9° (Epoch: 27 February)

Event Time Altitude Azimuth Distance (km) Brightness Sun altitude
Rises 17:54:15 0° 1° (N) 3,508 6.8 -14.1°
Reaches altitude 10° 17:56:59 10° 10° (N) 2,535 6.0 -14.6°
Maximum altitude 18:02:14 36° 76° (ENE) 1,306 4.2 -15.4°
Drops below altitude 10° 18:07:07 10° 142° (SE) 2,351 5.8 -16.2°
Sets 18:09:33 0° 152° (SSE) 3,223 6.6 -16.5°
